Regional Weather Roundup
Issued by NWS San Angelo, TX

Home | Current Version | Previous Version | Text Only | Print | Product List | Glossary On
Versions: 1 2 3 4 5 6 7 8 9 10 11 12 13 14 15 16 17 18 19 20 21 22 23 24 25 26 27 28 29 30 31 32 33 34 35 36 37 38 39 40 41 42 43 44 45 46 47 48 49 50
000
ASUS44 KSJT 200010
RWRSJT
WEST CENTRAL TEXAS REGIONAL WEATHER ROUNDUP
NATIONAL WEATHER SERVICE SAN ANGELO TX
700 PM CDT SUN APR 19 2015

NOTE: "FAIR" INDICATES FEW OR NO CLOUDS BELOW 12,000 FEET WITH NO
SIGNIFICANT WEATHER AND/OR OBSTRUCTIONS TO VISIBILITY.

TXZ049-054-064>066-071>073-076>078-098-099-113-114-127-128-139-140-
154-155-168>170-200100
...LOCATIONS ACROSS WEST CENTRAL TEXAS...

CITY           SKY/WX    TMP DP  RH WIND       PRES   REMARKS
SAN ANGELO     SUNNY     76  40  27 N18       29.87R
ABILENE        SUNNY     71  39  31 N23       29.89R
DYESS AFB      MOSUNNY   70  43  37 N18       29.89R
JUNCTION       SUNNY     80  41  24 N9        29.84R
SWEETWATER     SUNNY     68  37  31 NW14G20   29.96R
BROWNWOOD      SUNNY     73  45  35 NW17G23   29.85R
COLEMAN        CLEAR     73  46  37 NW18G24   29.87R
SONORA         SUNNY     77  34  20 NW10G17   29.91R
OZONA          FAIR      77  30  18 N10       29.90S
BRADY          SUNNY     79  37  22 W18       29.84S
$$

TEXAS PANHANDLE/OKLAHOMA PANHANDLE

CITY           SKY/WX    TMP DP  RH WIND       PRES   REMARKS
AMARILLO       SUNNY     60  27  28 N17       29.97S
BORGER         SUNNY     61  25  25 N22G28    29.95F
CANADIAN       NOT AVBL
DALHART        SUNNY     58  25  28 N17       30.00R
DUMAS          CLEAR     58  25  28 N18G26    29.96S
GUYMON         NOT AVBL
HEREFORD       CLEAR     62  31  30 NE10G16   29.99S
PAMPA          CLEAR     56  31  37 N18G24    29.96F
PERRYTON       SUNNY     57  30  35 N22G29    29.94S
$$

SOUTHERN PANHANDLE/SOUTH PLAINS/ROLLING PLAINS

CITY           SKY/WX    TMP DP  RH WIND       PRES   REMARKS
LUBBOCK        SUNNY     61  36  39 N15       29.98S
SNYDER         SUNNY    N/A N/A N/A N15G22    29.95S
CHILDRESS      MOSUNNY   61  39  44 N22G29    29.96R
SEMINOLE       CLEAR     64  35  33 N14G20    30.00R
$$

PERMIAN BASIN

CITY           SKY/WX    TMP DP  RH WIND       PRES   REMARKS
MIDLAND        SUNNY     71  36  27 N21       29.94R
ODESSA         SUNNY     71  34  25 N20G25    29.95R
WINK           SUNNY     76  27  16 NE17      29.90S
$$

FAR WEST/SOUTHWEST MOUNTAINS/TRANS PECOS

CITY           SKY/WX    TMP DP  RH WIND       PRES   REMARKS
ALPINE         PTCLDY    71  30  22 NE8       30.00F
DRYDEN           N/A     83  35  18 N14G24    29.82S
EL PASO        MOSUNNY   78  15   9 SW7       29.86F
FORT STOCKTON  SUNNY     76  30  18 N12       29.91R
GUADALUPE PASS MOSUNNY   63  29  27 E24       29.99F
MARFA          NOT AVBL
PECOS          CLEAR     77  31  18 NE9       29.89S
$$

DALLAS/FORT WORTH METROPLEX

CITY           SKY/WX    TMP DP  RH WIND       PRES   REMARKS
DFW AIRPORT    MOSUNNY   74  48  39 NW23G29   29.75R
FTW MEACHAM    MOSUNNY   73  48  41 W18G26    29.76R
DAL-EXECUTIVE  SUNNY     74  47  38 W16       29.75R
GRAND PRAIRIE  SUNNY     75  48  38 W10G20    29.77R
ADDISON        MOSUNNY   81  45  28 W15G26    29.74
MESQUITE       PTCLDY    73  46  38 W18       29.76R
LANCASTER      CLEAR     72  48  42 NW10G17   29.76R
$$

NORTH CENTRAL TEXAS

CITY           SKY/WX    TMP DP  RH WIND       PRES   REMARKS
SHRMAN/DENISON CLEAR     71  52  50 W18G24    29.75R
GAINESVILLE    MOSUNNY   68  48  49 NW15G22   29.79R
BRIDGEPORT     CLEAR     71  48  44 NW15G24   29.82R
DENTON         SUNNY     71  47  42 NW14G26   29.76R
WAXAHACHIE     CLEAR     74  49  42 W10       29.77R
GRANBURY       MOCLDY    75  46  35 W14G22    29.80R
$$

WESTERN NORTH TEXAS

CITY           SKY/WX    TMP DP  RH WIND       PRES   REMARKS
WICHITA FALLS  SUNNY     64  49  57 N30G38    29.85R
VERNON         PTCLDY    65  40  39 N21G30    29.91R
BRECKENRIDGE   CLEAR     74  39  28 NW20G29   29.84R
COMANCHE       SUNNY     73  46  37 NW18G26   29.84R
$$

CENTRAL AND SOUTH CENTRAL TEXAS

CITY           SKY/WX    TMP DP  RH WIND       PRES   REMARKS
AUSTIN/BERGSTM MOSUNNY   82  44  26 NW15      29.75R
WACO           SUNNY     77  49  37 NW13      29.77R
HILLSBORO      CLEAR     74  51  43 NW9       29.77R
TEMPLE         SUNNY     77  50  38 NW9       29.78R
KILLEEN-GRAY   SUNNY     78  43  29 NW13      29.79R
FORT HOOD      SUNNY     78  43  28 NW16      29.78R
GEORGETOWN     SUNNY     81  46  30 NW10G18   29.78R
LAGO VISTA     FAIR      82  42  24 NW9G22    29.81R
SAN MARCOS     NOT AVBL
NEW BRAUNFELS  SUNNY     84  51  31 N13       29.74R
RANDOLPH AFB   SUNNY     86  49  28 N14       29.75R
SAN ANTONIO    MOSUNNY   86  45  23 NW9       29.75R
STINSON        SUNNY     85  57  38 SW7       29.73R
PLEASANTON     NOT AVBL
LA GRANGE      MOSUNNY   78  69  73 N8        29.71S
GIDDINGS       PTCLDY    81  54  38 N6        29.78R
$$

EAST TEXAS

CITY           SKY/WX    TMP DP  RH WIND       PRES   REMARKS
PARIS          SUNNY     72  54  53 MISG      29.70S
CLARKSVILLE    NOT AVBL
TYLER          SUNNY     75  54  47 NW9       29.73R
LONGVIEW       PTCLDY    78  55  44 W17G25    29.68R
PALESTINE      CLEAR     77  54  45 NW10G20   29.76R
NACOGDOCHES    MOCLDY    77  63  61 W9        29.71R
$$

TEXAS HILL COUNTRY AND EDWARDS PLATEAU

CITY           SKY/WX    TMP DP  RH WIND       PRES   REMARKS
LLANO          CLEAR     79  45  29 NW10      29.84S
HORSESHOE BAY  FAIR      81  44  27 NW12      29.81R
KERRVILLE      SUNNY     82  39  22 NW7       29.82R
FREDERICKSBRG  SUNNY     76  44  32 N13       29.83S
ROCKSPRINGS    CLEAR     79  36  21 N12       29.87S
HONDO          SUNNY     83  50  31 NW9       29.77S
UVALDE         NOT AVBL
DEL RIO        SUNNY     88  36  15 N7        29.77R
$$

SOUTHEAST TEXAS

CITY           SKY/WX    TMP DP  RH WIND       PRES   REMARKS
COLLEGE STN    SUNNY     79  59  50 NW7       29.74R
CALDWELL       CLEAR     79  52  38 NW10      29.77S
CROCKETT       PTCLDY    81  61  50 W8        29.76R
BRENHAM        MOSUNNY   80  65  61 NW6       29.74R
HUNTSVILLE     PTSUNNY   72  58  61 NW8       29.73R
CONROE         CLOUDY    72  54  53 S7        29.73R
HOUSTON BUSH   TSTM      66  59  77 N25G41    29.73F VSB 1
HOUSTON HOBBY  MOCLDY    79  71  76 S10       29.72R
PERLAND        PTCLDY    79  70  74 S12       29.74S
WHARTON        PTCLDY    77  73  85 S16       29.74S
$$

THE UPPER TEXAS COAST

CITY           SKY/WX    TMP DP  RH WIND       PRES   REMARKS
ORANGE         MOCLDY    74  63  66 S13G18    29.76S
PORT ARTHUR    MOCLDY    74  66  76 S10       29.74S
GALVESTON      PTCLDY    75  72  90 S17       29.75F
ANGLETON       SUNNY     75  70  84 S10       29.74F
BAY CITY       PTCLDY    78  73  84 S10       29.75S
$$

TEXAS COASTAL BEND, RIO GRANDE PLAINS DEEP SOUTH TEXAS

CITY           SKY/WX    TMP DP  RH WIND       PRES   REMARKS
VICTORIA       SUNNY     81  71  71 SW9       29.74R
BEEVILLE       FAIR      82  72  72 SW6       29.75S
ROCKPORT       PTSUNNY   77  72  84 S8        29.74S
PORT ARANSAS   CLOUDY    75  73  94 S7        29.75S
PORT LAVACA    CLEAR     79  73  83 S12       29.75S
CORPUS CHRISTI CLOUDY    80  74  81 S8        29.75R
KINGSVILLE NAS CLOUDY    81  77  88 S6        29.75R
COTULLA        MOSUNNY   88  55  32 CALM      29.75S
LAREDO         PTSUNNY   83  69  62 SE7       29.77S
BROWNSVILLE    CLOUDY    79  75  87 SE13      29.74S
PORT ISABEL    PTSUNNY   78  74  87 E14       29.74S
HEBBRONVILLE     N/A     81  67  63 CALM      29.78S
MCALLEN        PTSUNNY   87  73  62 SE8       29.72F
WESLACO        PTSUNNY   84  74  70 E12       29.73S
FALFURRIAS     CLOUDY    82  73  72 N5        29.75R
EDINBURG       MOCLDY    85  74  67 E10       29.73F
$$


USA.gov is the U.S. government's official web portal to all federal, state and local government web resources and services.